CZ-6A DEB

Satellite information

Favourite Embed

Satellite Type and Status

DEBRISIN ORBIT

Key statistics

Satellite CZ-6A DEB at a glance.

Uptime

1129

Days in orbit

Revolutions

≈ 14.4

Per day

Orbit

SSO

Sun Synchronous Orbit

Inclination

98.6

Latest

Satellite identification and parameters

Extended collection of information and parameters for CZ-6A DEB.

Object identification

Identified? True

Debris? True

Object name: CZ-6A DEB

International designator: 2022-151RJ

Object number (NORAD): 54921

Object ID (CCSDS): 54921

Country: PEOPLES REPUBLIC OF CHINA (PRC)

Current information (Y/N): Y

RCS size: SMALL

Orbital parameters

Period: 99.674 minutes

Inclination: 98.5672 deg

SMA: 7121.135 km

Apoapsis: 828.146 km

Periapsis: 657.854 km

RAAN: 19.3599 deg

Eccentricy: 0.01195681

Argument of periapsis: 151.3231 deg

Mean anomaly: 209.4604 deg

Mean motion: 14.4470426 rev/day

Mean motion (dot): 0.00001421 rev/day2

B* drag term: 0.00038826932 1/REarth

Two-line elements (TLE)

Creation date: Dec. 14, 2025, 3:07 a.m.

Reference frame: TEME

Reference center: EARTH

Epoch: Dec. 13, 2025, 3 p.m. UTC

TLE line 0: 0 CZ-6A DEB

TLE line 1: 1 54921U 22151RJ 25347.62505074 .00001421 00000-0 38827-3 0 9991

TLE line 2: 2 54921 98.5672 19.3599 0119568 151.3231 209.4604 14.44704260158913

Live tracking on map

Real-time ground track for satellite CZ-6A DEB.

In-orbit conjunctions

A list of the most updated potential collisions computed for object CZ-6A DEB.

Target Orbit TCA Probability of collision Miss distance Type
NOAA 16 DEB SSO 2025-08-06 04:15:05 0.0001328374 13.0 (m) DEBRIS
FENGYUN 1C DEB SSO 2025-07-18 21:05:10 0.0001960508 118.0 (m) DEBRIS
SL-8 R/B LEO 2025-02-17 13:25:55 0.0004445101 115.0 (m) ROCKET BODY

Associated space launch

Chinese satellite reported for atmospheric/ocean/environmental/spatial parameter research purposes, details TBD.

CZ-6A DEB was lifted into orbit during the mission ‘Long March 6A | Yunhai 3’, on board a Long March 6A space rocket.

The launch took place on Nov. 11, 2022, 10:52 p.m. from Launch Complex 9A.

For more information about the launch, click the button.

Launch to space Long March 6A | Yunhai 3
Long March 6A | Yunhai 3

Agency: N/A

Status: Launch Successful

Launch date: Nov. 11, 2022, 10:52 p.m. UTC

Rocket: Long March 6A

Launch pad: Launch Complex 9A

Location: Taiyuan Satellite Launch Center, People's Republic of China

...

Latest news about this satellite

There are no fresh news available about this satellite. Check back as we update our databases every day.


Newsletter sign-up

Weekly statistics, charts and insights to help you stay on top of the space industry.